[[{"header":{"parameterUnit":"m.s-1","parameterCategory":1,"la1":30.2991,"la2":30.254,"lo1":-89.0895,"lo2":-89.0444,"dy":0.0017,"dx":0.0017,"nx":28,"ny":28,"refTime":"2024-07-26T03:00:00:Z","depth":0,"parameterNumber":2,"parameterNumberName":"U-component_of_WINDS"},"data":[0,0,0,0,0,0,0,0,0,0,0,0,0,0,0,0,0,0,0,0,0,0,0,0,0,0,0,0,0,0,0,0,0,0,0,0,0,0,0,0,0,0,0,0,0,0,0,0,0,0,0,0,0,0,0,0,0,0,-2.753,-2.7529,0,-2.7385,-2.7383,-2.7381,-2.7256,-2.7254,-2.7253,-2.7252,-2.7101,-2.7098,-2.7096,0,0,0,0,0,0,0,0,0,0,0,0,0,-2.77,-2.7698,-2.753,-2.7528,-2.7527,-2.7385,-2.7383,-2.7381,-2.7256,-2.7254,-2.7253,-2.7251,-2.7102,-2.7099,-2.7095,0,0,0,0,0,0,0,0,0,0,0,0,0,-2.7598,-2.7697,-2.7531,-2.7447,-2.7438,-2.7385,-2.7383,-2.738,-2.7256,-2.7254,-2.7252,-2.725,-2.7103,-2.7099,-2.7095,-2.7112,0,0,-2.7083,-2.7081,0,0,0,0,0,0,0,0,-2.7604,-2.7592,-2.7461,-2.7453,-2.7443,-2.7336,-2.7387,-2.729,-2.7257,-2.7326,-2.7252,-2.7249,-2.7181,-2.717,-2.7147,-2.7105,-2.7098,-2.7082,-2.708,-2.7078,-2.7077,0,0,0,0,0,0,0,-2.7611,-2.7597,-2.7472,-2.746,-2.7448,-2.7417,-2.74,-2.7368,-2.7267,-2.7319,-2.731,-2.7294,-2.7175,-2.7152,-2.7143,-2.7096,-2.7082,-2.7079,-2.7076,-2.7075,-2.7061,-2.7063,0,0,0,0,0,0,-2.7631,-2.7604,-2.7477,-2.7468,-2.752,-2.7416,-2.7397,-2.7373,-2.7267,-2.7249,-2.7296,-2.7289,-2.716,-2.7148,-2.7137,-2.7149,-2.7078,-2.7074,-2.7072,-2.7059,-2.7061,-2.7063,0,0,0,0,0,0,-2.7635,-2.7621,-2.7483,-2.7533,-2.7513,-2.7415,-2.7389,-2.7371,-2.7347,-2.7249,-2.7231,-2.7291,-2.7158,-2.7143,-2.7119,-2.7142,-2.7072,-2.7069,-2.7056,-2.7059,-2.7062,-2.7175,0,0,0,0,0,0,-2.7641,-2.7623,-2.7628,-2.7535,-2.7511,-2.7468,-2.739,-2.7369,-2.734,-2.733,-2.7239,-2.7222,-2.7155,-2.7126,-2.7115,-2.7136,-2.7066,-2.7053,-2.7057,-2.7061,-2.7169,-2.7181,-2.7193,0,0,0,0,0,-2.7647,-2.7666,-2.7629,-2.7615,-2.7516,-2.7469,-2.7456,-2.7379,-2.7343,-2.7347,-2.7285,-2.7225,-2.7143,-2.7125,-2.7111,-2.7131,-2.7052,-2.7056,-2.7061,-2.7163,-2.7179,-2.7192,0,0,0,0,0,0,-2.7764,-2.7652,-2.761,-2.7599,-2.7545,-2.7448,-2.7451,-2.7398,-2.7352,-2.7344,-2.7249,-2.723,-2.7217,-2.7172,-2.7154,-2.7142,-2.7089,-2.7091,-2.7172,-2.7186,-2.7197,-2.7207,-2.7062,0,0,0,0,0,-2.7789,-2.7761,-2.7664,-2.7663,-2.7638,-2.7551,-2.7527,-2.7472,-2.7412,-2.7388,-2.7324,-2.7268,-2.7229,-2.7205,-2.7164,-2.7163,-2.7141,-2.717,-2.7182,-2.7192,-2.7194,-2.719,-2.7201,-2.7078,-2.7078,-2.7078,0,0,-2.7839,-2.7774,-2.7762,-2.7685,-2.7637,-2.7609,-2.7532,-2.7506,-2.7484,-2.7384,-2.7357,-2.7309,-2.724,-2.7228,-2.7219,-2.719,-2.7224,-2.7198,-2.7207,-2.7203,-2.7196,-2.7208,-2.7218,-2.7082,-2.7081,-2.7081,0,0,-2.7915,-2.7865,-2.7858,-2.7812,-2.774,-2.7681,-2.7681,-2.7592,-2.7556,-2.7529,-2.7453,-2.7427,-2.7362,-2.7316,-2.7284,-2.7347,-2.7289,-2.7336,-2.7397,-2.7394,-2.7404,-2.7412,-2.7433,-2.7442,-2.7339,-2.734,-2.734,0,-2.7986,-2.7942,-2.7862,-2.784,-2.7809,-2.7719,-2.7712,-2.767,-2.7589,-2.7569,-2.7538,-2.7456,-2.7403,-2.7378,-2.7394,-2.7372,-2.7367,-2.7344,-2.7409,-2.7417,-2.7423,-2.7442,-2.745,-2.7346,-2.7345,-2.7344,-2.7344,0,-2.8033,-2.8004,-2.8007,-2.7932,-2.7901,-2.7887,-2.7804,-2.7783,-2.7732,-2.7677,-2.7651,-2.7585,-2.7529,-2.752,-2.7469,-2.7488,-2.7472,-2.7427,-2.7371,-2.7442,-2.7458,-2.7465,-2.7354,-2.7352,-2.735,-2.7349,0,0,-2.8176,-2.8058,-2.806,-2.8025,-2.794,-2.7916,-2.7899,-2.7845,-2.7828,-2.7776,-2.7758,-2.7707,-2.7665,-2.7629,-2.7573,-2.7571,-2.7624,-2.7525,-2.7522,-2.7545,-2.764,-2.7673,-2.7683,-2.7587,-2.7588,-2.7589,-2.7645,0,-2.8238,-2.8201,-2.8129,-2.8115,-2.8087,-2.8002,-2.7987,-2.7934,-2.7883,-2.7852,-2.7795,-2.776,-2.7708,-2.7685,-2.768,-2.7619,-2.7641,-2.7614,-2.7568,-2.7568,-2.7586,-2.7691,-2.7726,-2.7782,-2.7651,-2.7652,-2.7653,0,-2.8304,-2.8257,-2.8241,-2.8159,-2.8145,-2.8132,-2.8077,-2.8049,-2.7987,-2.795,-2.7912,-2.7851,-2.7828,-2.778,-2.7747,-2.773,-2.7708,-2.7675,-2.7676,-2.7666,-2.7613,-2.7683,-2.7798,-2.7806,-2.7662,-2.7662,-2.7661,0,-2.8408,-2.8342,-2.8323,-2.8296,-2.82,-2.8194,-2.8154,-2.809,-2.8062,-2.8015,-2.7996,-2.7947,-2.792,-2.7883,-2.781,-2.7782,-2.7785,-2.7731,-2.7753,-2.7755,-2.7755,-2.7756,-2.7866,-2.7745,-2.7745,-2.7745,-2.7745,0,-2.8483,-2.8476,-2.8369,-2.8358,-2.8348,-2.8266,-2.8258,-2.821,-2.8154,-2.8132,-2.8056,-2.8037,-2.7943,-2.7913,-2.7857,-2.7838,-2.7826,-2.7795,-2.778,-2.7801,-2.7804,-2.7783,-2.7776,-2.7747,-2.7747,-2.7746,-2.7746,0,-2.8597,-2.8525,-2.8499,-2.8411,-2.8389,-2.8386,-2.831,-2.8296,-2.8242,-2.8215,-2.8203,-2.8118,-2.8079,-2.8004,-2.7943,-2.7905,-2.7898,-2.7873,-2.7919,-2.7909,-2.7935,-2.7933,-2.8034,-2.8042,-2.7919,-2.792,-2.7921,0,-2.8648,-2.8641,-2.8553,-2.8533,-2.8496,-2.8464,-2.8436,-2.8356,-2.833,-2.826,-2.8255,-2.821,-2.8169,-2.8111,-2.8043,-2.7997,-2.7968,-2.8007,-2.796,-2.7982,-2.7966,-2.7967,-2.7965,-2.8016,-2.8018,-2.8019,-2.8021,0,-2.8747,-2.8712,-2.8675,-2.8626,-2.8595,-2.8552,-2.8505,-2.8493,-2.8402,-2.8377,-2.8336,-2.8305,-2.8244,-2.82,-2.8145,-2.8103,-2.8046,-2.8036,-2.8039,-2.8058,-2.8085,-2.8069,-2.7945,-2.8034,-2.8032,-2.8031,-2.8031,-2.803,-2.8829,-2.8819,-2.8756,-2.8717,-2.8674,-2.8632,-2.8614,-2.8559,-2.8524,-2.8468,-2.8423,-2.8386,-2.8325,-2.8245,-2.8207,-2.8177,-2.815,-2.8154,-2.8154,-2.8156,-2.8164,-2.8093,-2.8167,-2.8166,-2.8166,-2.8165,-2.8165,0,-2.8922,-2.8878,-2.8843,-2.8781,-2.8751,-2.8702,-2.8648,-2.8626,-2.8595,-2.8543,-2.8505,-2.8459,-2.8417,-2.8347,-2.8299,-2.8288,-2.8261,-2.8278,-2.8277,-2.8268,-2.8191,-2.8193,-2.8301,-2.8301,-2.8301,-2.8301,-2.8301,-2.8301,-2.8967,-2.8947,-2.8905,-2.8863,-2.8818,-2.8782,-2.8755,-2.8717,-2.8675,-2.8627,-2.8591,-2.8547,-2.8488,-2.8435,-2.8394,-2.8375,-2.836,-2.8385,-2.8357,-2.8286,-2.8273,-2.8261,-2.8262,-2.8383,-2.8383,-2.8435,-2.8436,-2.8436]},{"header":{"parameterUnit":"m.s-1","parameterCategory":1,"la1":30.2991,"la2":30.254,"lo1":-89.0895,"lo2":-89.0444,"dy":0.0017,"dx":0.0017,"nx":28,"ny":28,"refTime":"2024-07-26T03:00:00:Z","depth":0,"parameterNumber":3,"parameterNumberName":"V-component_of_WINDS"},"data":[0,0,0,0,0,0,0,0,0,0,0,0,0,0,0,0,0,0,0,0,0,0,0,0,0,0,0,0,0,0,0,0,0,0,0,0,0,0,0,0,0,0,0,0,0,0,0,0,0,0,0,0,0,0,0,0,0,0,1.8843,1.8843,0,1.8833,1.8833,1.8833,1.886,1.8861,1.8862,1.8863,1.8849,1.8848,1.8847,0,0,0,0,0,0,0,0,0,0,0,0,0,1.8882,1.8881,1.8843,1.8843,1.8843,1.8833,1.8833,1.8833,1.886,1.8861,1.8862,1.8863,1.8849,1.8848,1.8847,0,0,0,0,0,0,0,0,0,0,0,0,0,1.8868,1.888,1.8843,1.8855,1.8856,1.8833,1.8833,1.8833,1.886,1.8861,1.8863,1.8864,1.885,1.8848,1.8846,1.881,0,0,1.8841,1.884,0,0,0,0,0,0,0,0,1.8868,1.8866,1.8854,1.8855,1.8856,1.885,1.8842,1.8825,1.886,1.8858,1.8863,1.8864,1.8848,1.8846,1.8842,1.8809,1.8809,1.8841,1.884,1.8839,1.8839,0,0,0,0,0,0,0,1.8869,1.8867,1.8839,1.8853,1.8855,1.886,1.886,1.8839,1.8846,1.8859,1.8861,1.8859,1.8849,1.8843,1.8841,1.8808,1.8841,1.8839,1.8838,1.8838,1.8745,1.8744,0,0,0,0,0,0,1.8869,1.8867,1.8839,1.8839,1.8865,1.8858,1.8858,1.885,1.8846,1.8847,1.8858,1.8861,1.8846,1.8843,1.8841,1.8798,1.8839,1.8837,1.8836,1.8746,1.8745,1.8743,0,0,0,0,0,0,1.887,1.8866,1.884,1.8854,1.8851,1.8856,1.8848,1.8849,1.8844,1.8846,1.8847,1.8852,1.8846,1.8843,1.8818,1.8798,1.8837,1.8835,1.8748,1.8746,1.8744,1.8711,0,0,0,0,0,0,1.8871,1.8867,1.8854,1.8853,1.885,1.8818,1.8846,1.8848,1.8841,1.8844,1.884,1.8841,1.8847,1.882,1.8816,1.8796,1.8834,1.875,1.8747,1.8745,1.8714,1.8708,1.8703,0,0,0,0,0,1.8872,1.8844,1.8853,1.8849,1.8834,1.8816,1.8814,1.8824,1.884,1.8826,1.8827,1.8841,1.8801,1.8817,1.8813,1.8792,1.8751,1.8748,1.8745,1.8717,1.8709,1.8703,0,0,0,0,0,0,1.884,1.8844,1.8854,1.8825,1.882,1.8821,1.8804,1.8816,1.8806,1.8809,1.882,1.8818,1.879,1.8788,1.8807,1.8756,1.8778,1.8774,1.8758,1.8752,1.8746,1.8747,1.8832,0,0,0,0,0,1.883,1.8817,1.8821,1.8795,1.8792,1.8798,1.8791,1.8799,1.8794,1.8792,1.8791,1.8785,1.8771,1.8761,1.8748,1.8714,1.8713,1.8697,1.8692,1.8688,1.8684,1.8665,1.8658,1.8733,1.8733,1.8733,0,0,1.8809,1.8809,1.88,1.8788,1.8786,1.877,1.8797,1.8779,1.8768,1.8789,1.8765,1.8764,1.8757,1.8727,1.8713,1.8725,1.8663,1.8684,1.868,1.8679,1.8661,1.8654,1.8648,1.8731,1.8731,1.8731,0,0,1.8762,1.8761,1.874,1.8737,1.8733,1.8737,1.8732,1.8731,1.8732,1.8708,1.8723,1.8709,1.8685,1.868,1.8674,1.8625,1.8636,1.862,1.8592,1.8573,1.8567,1.8562,1.8544,1.8538,1.8616,1.8616,1.8616,0,1.8735,1.8715,1.8727,1.8709,1.8703,1.8722,1.87,1.8696,1.8687,1.8682,1.8695,1.8665,1.8662,1.863,1.8619,1.8613,1.8607,1.8621,1.8568,1.8562,1.8558,1.8541,1.8534,1.8614,1.8614,1.8615,1.8615,0,1.8682,1.8667,1.865,1.8643,1.8635,1.8615,1.8622,1.8613,1.8621,1.8624,1.8599,1.8596,1.8583,1.8576,1.8583,1.8545,1.8552,1.8566,1.8588,1.8548,1.8533,1.8526,1.8611,1.8612,1.8613,1.8613,0,0,1.8615,1.8615,1.8609,1.8605,1.8603,1.8591,1.8571,1.8559,1.8551,1.8544,1.8527,1.8506,1.8519,1.8512,1.8519,1.8503,1.8464,1.8518,1.8518,1.8508,1.8421,1.841,1.8403,1.8471,1.847,1.8469,1.8421,0,1.8569,1.8537,1.8547,1.8514,1.85,1.8518,1.85,1.8496,1.8498,1.8485,1.8487,1.8472,1.849,1.8486,1.8471,1.8472,1.8446,1.8475,1.8455,1.8454,1.8456,1.8395,1.8383,1.8338,1.8415,1.8414,1.8413,0,1.8511,1.8503,1.8469,1.8469,1.8463,1.8447,1.8438,1.8426,1.8421,1.8423,1.8416,1.8426,1.8405,1.8428,1.8398,1.8418,1.841,1.8409,1.8407,1.8406,1.8431,1.8391,1.8324,1.8317,1.8404,1.8405,1.8405,0,1.8465,1.8446,1.8423,1.842,1.8419,1.8407,1.8406,1.8403,1.8395,1.8386,1.8381,1.8369,1.8362,1.8352,1.8358,1.8374,1.8327,1.835,1.8328,1.8327,1.8317,1.8317,1.8248,1.8312,1.8312,1.8312,1.8312,0,1.8412,1.8391,1.8403,1.8389,1.8365,1.8376,1.8351,1.8352,1.8348,1.8334,1.8348,1.8333,1.8343,1.8328,1.8333,1.8307,1.8304,1.8305,1.8306,1.8303,1.8303,1.8298,1.8301,1.831,1.8311,1.8311,1.8311,0,1.8357,1.8365,1.8341,1.8342,1.8342,1.8324,1.8324,1.8311,1.8314,1.8295,1.8291,1.8295,1.8279,1.8285,1.8267,1.827,1.8238,1.8243,1.824,1.8241,1.8218,1.822,1.8142,1.8133,1.8203,1.8203,1.8202,0,1.8323,1.8307,1.8307,1.8299,1.8297,1.8284,1.8276,1.8286,1.8278,1.8271,1.8258,1.8243,1.8232,1.8206,1.8206,1.8193,1.8198,1.8172,1.8196,1.8194,1.8197,1.8198,1.8196,1.8167,1.8166,1.8165,1.8165,0,1.8262,1.8266,1.8256,1.8247,1.8238,1.8231,1.8225,1.8217,1.8227,1.8216,1.8201,1.8192,1.8175,1.816,1.8148,1.8145,1.8156,1.8157,1.8151,1.8148,1.8147,1.8147,1.8227,1.8159,1.8159,1.816,1.816,1.816,1.8216,1.8203,1.8201,1.8189,1.8185,1.8179,1.8167,1.8169,1.8157,1.8144,1.815,1.8132,1.8127,1.8112,1.8107,1.8092,1.8102,1.8093,1.8091,1.8089,1.8086,1.8149,1.809,1.809,1.809,1.809,1.8091,0,1.8156,1.8155,1.8144,1.8136,1.8126,1.8139,1.8133,1.8123,1.8108,1.8102,1.8092,1.8073,1.8059,1.8059,1.8045,1.8033,1.8037,1.8029,1.803,1.8029,1.8078,1.8084,1.8025,1.8025,1.8025,1.8025,1.8025,1.8025,1.8123,1.8101,1.8105,1.8081,1.8081,1.8065,1.806,1.8054,1.805,1.803,1.8018,1.8019,1.8015,1.8001,1.7988,1.7988,1.7982,1.7971,1.7973,1.8019,1.8025,1.8031,1.8038,1.797,1.797,1.7925,1.7925,1.7924]}]]